This is the latest recevied weather packets stored in our database for station/object KO4DYK. If no packets are shown the sender has not sent any weather packets the latest 10 day(s).
| Time | Temp. | Humidity | Pressure | Rain* | Wind** | Luminosity | Snow |
|---|---|---|---|---|---|---|---|
| 1787955224 | 31.67° C | 48% | 1018.4 hPa | 0 mm | - | 250 W/m² | - |
| 1787954928 | 32.22° C | 47% | 1018.2 hPa | 0 mm | - | 293 W/m² | - |
| 1787954615 | 31.11° C | 49% | 1018.4 hPa | 0 mm | - | 362 W/m² | - |
| 1787954314 | 31.11° C | 49% | 1018.4 hPa | 0 mm | - | 381 W/m² | - |
| 1787954010 | 31.67° C | 48% | 1018.2 hPa | 0 mm | - | 390 W/m² | - |
| 1787953708 | 31.67° C | 47% | 1018.4 hPa | 0 mm | - | 368 W/m² | - |
| 1787953404 | 31.67° C | 48% | 1018.4 hPa | 0 mm | - | 370 W/m² | - |
| 1787953102 | 31.67° C | 47% | 1018.5 hPa | 0 mm | - | 396 W/m² | - |
| 1787952801 | 31.67° C | 48% | 1018.4 hPa | 0 mm | - | 426 W/m² | - |
| 1787952496 | 31.67° C | 48% | 1018.5 hPa | 0 mm | - | 439 W/m² | - |
| 1787952194 | 31.67° C | 47% | 1018.5 hPa | 0 mm | - | 468 W/m² | - |
| 1787951891 | 31.67° C | 47% | 1018.4 hPa | 0 mm | - | 457 W/m² | - |
| 1787951587 | 32.78° C | 46% | 1018.7 hPa | 0 mm | - | 469 W/m² | - |
| 1787951283 | 31.67° C | 46% | 1018.6 hPa | 0 mm | - | 502 W/m² | - |
| 1787950978 | 32.22° C | 46% | 1018.6 hPa | 0 mm | - | 521 W/m² | - |
| 1787950673 | 32.78° C | 46% | 1018.6 hPa | 0 mm | - | 531 W/m² | - |
| 1787950370 | 32.78° C | 45% | 1018.7 hPa | 0 mm | - | 539 W/m² | - |
| 1787950065 | 32.22° C | 45% | 1018.7 hPa | 0 mm | - | 517 W/m² | - |
| 1787949761 | 31.67° C | 47% | 1018.7 hPa | 0 mm | - | 517 W/m² | - |
| 1787949460 | 32.22° C | 46% | 1018.7 hPa | 0 mm | - | 551 W/m² | - |
| 1787949155 | 33.33° C | 45% | 1018.7 hPa | 0 mm | - | 542 W/m² | - |
| 1787948852 | 33.89° C | 44% | 1019 hPa | 0 mm | - | 573 W/m² | - |
| 1787948551 | 32.78° C | 45% | 1019.1 hPa | 0 mm | - | 552 W/m² | - |
| 1787948247 | 32.22° C | 46% | 1019 hPa | 0 mm | - | 582 W/m² | - |
| 1787947945 | 31.67° C | 45% | 1019 hPa | 0 mm | - | 615 W/m² | - |
* Rain latest hour (hover to see other rain measurements)
** Current wind speed in m/s (hover to see current wind gust speed)